Regional Weather Roundup
Issued by NWS

Home | Current Version | Previous Version | Graphics & Text | Print | Product List | Glossary Off
Versions: 1 2 3 4 5 6 7 8 9 10 11 12 13 14 15 16 17 18 19 20 21 22 23 24 25 26 27 28 29 30 31 32 33 34 35 36 37 38 39 40 41 42 43 44 45 46 47 48 49 50

000
ASUS43 KMKX 201800
RWRWI

WISCONSIN REGIONAL WEATHER ROUNDUP
NATIONAL WEATHER SERVICE MILWAUKEE/SULLIVAN WI
100 PM CDT FRI OCT 20 2017

NOTE: "FAIR" INDICATES FEW OR NO CLOUDS BELOW 12,000 FEET WITH NO
SIGNIFICANT WEATHER AND/OR OBSTRUCTIONS TO VISIBILITY.

WIZ001-002-006>008-014>016-023>028-201900-
NORTHWEST WISCONSIN

CITY           SKY/WX    TMP DP  RH WIND       PRES   REMARKS
SUPERIOR ARPT  SUNNY     73  51  46 S12G17    29.79F
ASHLAND        SUNNY     76  49  38 SW14      29.83F
6HR MIN TEMP:  48; 6HR MAX TEMP:  76;

HAYWARD        SUNNY     71  49  45 S18       29.87F
6HR MIN TEMP:  50; 6HR MAX TEMP:  71;

SIREN          SUNNY     74  48  40 S10G17    29.84F
CUMBERLAND     SUNNY     70  46  43 S17       29.88F
RICE LAKE      SUNNY     71  49  46 S13       29.91F
CHETEK         SUNNY     71  52  51 S13G18    29.91F
LADYSMITH      SUNNY     71  52  51 S14       29.94F
EAU CLAIRE     SUNNY     74  50  42 S14       29.91F
6HR MIN TEMP:  48; 6HR MAX TEMP:  74;

MENOMONIE      SUNNY     73  51  46 S15G22    29.91F
NEW RICHMOND   SUNNY     73  48  41 S17G23    29.86F
OSCEOLA        SUNNY     73  51  45 S13       29.87F
$$

WIZ003>005-009-010-017-018-201900-
NORTH CENTRAL WISCONSIN

CITY           SKY/WX    TMP DP  RH WIND       PRES   REMARKS
MANITOWISH WTR SUNNY     71  50  48 S13       29.92F
ARBOR VITAE    SUNNY     72  51  47 S12G18    29.93F
WOODRUFF       SUNNY     72  51  47 S12G18    29.93F
RHINELANDER    SUNNY     73  48  41 S15G22    29.96F
6HR MIN TEMP:  53; 6HR MAX TEMP:  73;

EAGLE RIVER    SUNNY     72  45  37 S10       29.95F
LAND O LAKES   SUNNY     74  43  33 S8G20     29.95F
PHILLIPS       SUNNY     72  51  47 S14       29.92F
TOMAHAWK       SUNNY     72  48  42 S6        29.96F
MEDFORD        SUNNY     69  49  48 S13       29.97F
MERRILL        SUNNY     73  51  47 SW8       29.98F
$$

WIZ029-030-035-036-043>047-201900-
CENTRAL WISCONSIN

CITY           SKY/WX    TMP DP  RH WIND       PRES   REMARKS
WAUSAU         SUNNY     71  51  49 S9        29.97F
6HR MIN TEMP:  46; 6HR MAX TEMP:  71;

MOSINEE        MOSUNNY   70  54  56 S12       30.00F
MARSHFIELD     SUNNY     73  50  44 S12G20    29.97F
6HR MIN TEMP:  46; 6HR MAX TEMP:  73;

STEVENS POINT  SUNNY     70  51  50 S9        30.01F
WAUPACA        SUNNY     74  52  45 S8        30.02F
WAUTOMA        SUNNY     73  51  46 S12       30.02F
6HR MIN TEMP:  37; 6HR MAX TEMP:  73;

WISC RAPIDS    SUNNY     73  51  46 SW14      30.01F
6HR MIN TEMP:  50; 6HR MAX TEMP:  74;

CAMP DOUGLAS   NOT AVBL
$$

WIZ011>013-019>022-031-037>040-048>050-201900-
NORTHEAST WISCONSIN

CITY           SKY/WX    TMP DP  RH WIND       PRES   REMARKS
ANTIGO         SUNNY     69  51  52 S12       30.00F
SHAWANO        SUNNY     73  52  46 S5        30.01F
OCONTO         SUNNY     70  52  53 S9        30.01F
STURGEON BAY   SUNNY     73  55  53 S10       30.01
6HR MIN TEMP:  52; 6HR MAX TEMP:  73;

GREEN BAY      SUNNY     71  54  54 S14       30.02F
6HR MIN TEMP:  51; 6HR MAX TEMP:  71;

MANITOWOC      SUNNY     69  54  58 S13       30.04F
6HR MIN TEMP:  47; 6HR MAX TEMP:  70;

APPLETON       MOSUNNY   72  46  40 S14       30.02F
CLINTONVILLE   NOT AVBL
OSHKOSH        SUNNY     72  52  49 S14       30.03F
6HR MIN TEMP:  52; 6HR MAX TEMP:  73;

$$

WIZ032>034-041-042-053>061-201900-
SOUTHWEST WISCONSIN

CITY           SKY/WX    TMP DP  RH WIND       PRES   REMARKS
LA CROSSE      SUNNY     73  54  51 S16       29.95F
6HR MIN TEMP:  56; 6HR MAX TEMP:  73;

SPARTA         SUNNY     72  51  47 S9        29.99F
VIROQUA        SUNNY     70  53  54 S13G20    30.02F
BOSCOBEL       SUNNY     75  53  46 S8        30.02F
6HR MIN TEMP:  42; 6HR MAX TEMP:  75;

PRAIRIE DU CHI SUNNY     72  50  46 S7        30.01F
PLATTEVILLE    SUNNY     70  54  56 S10G16    30.06F
$$

WIZ056-057-062-063-064-067-068-201900-
SOUTH CENTRAL WISCONSIN

CITY           SKY/WX    TMP DP  RH WIND       PRES   REMARKS
REEDSBURG      SUNNY     72  51  48 S13       30.03F
BARABOO/DELLS  SUNNY     70  50  49 S13       30.04F
LONE ROCK      NOT AVBL
MINERAL POINT  SUNNY     72  54  53 S10       30.06F
MADISON        PTSUNNY   72  50  45 S10       30.05F
6HR MIN TEMP:  51; 6HR MAX TEMP:  73;

MIDDLETON      SUNNY     74  48  39 SW10      30.06F
WATERTOWN      SUNNY     72  52  49 SW14      30.07F
MONROE         SUNNY     72  46  40 SW13      30.08F
JANESVILLE     SUNNY     77  48  36 S10G16    30.08F
$$

WIZ051-052-058>065-066-070>072-201900-
SOUTHEAST WISCONSIN

CITY           SKY/WX    TMP DP  RH WIND       PRES   REMARKS
MILWAUKEE      MOSUNNY   76  52  43 SW15      30.08F
6HR MIN TEMP:  52; 6HR MAX TEMP:  76;

WAUKESHA       SUNNY     72  48  43 SW15G21   30.10F
MILWAUKEE/TIMM SUNNY     75  46  35 SW12      30.08F
RACINE         SUNNY     76  52  43 S9        30.10F
6HR MIN TEMP:  51; 6HR MAX TEMP:  76;

BURLINGTON     SUNNY     76  52  43 SW14      30.09F
KENOSHA        SUNNY     75  52  44 SW13      30.10F
6HR MIN TEMP:  48; 6HR MAX TEMP:  76;

FOND DU LAC    SUNNY     73  49  42 S12G18    30.04F
6HR MIN TEMP:  56; 6HR MAX TEMP:  73;

SHEBOYGAN      SUNNY     76  47  35 S17       30.05F
6HR MIN TEMP:  44; 6HR MAX TEMP:  76;

WEST BEND      SUNNY     73  45  35 S13G21    30.07F
JUNEAU         SUNNY     70  51  50 S12       30.08F
$$

LSZ147-162-201900-
LAKE SUPERIOR

STATION/POSITION TIME  TEMP    WIND        PRES    WAVE
                       AIR SEA DIR/SP/G            HT/PER
                 (UTC) (F)     (DEG/KT/KT) (MB)    (FT/S)
W MID LAKE BUOY  1650   55 53              1011.0F   1/ 3
DEVILS ISLAND    1700   65     170/  6/  9 1010.3F
PORT WING        1640          180/  9/ 15 1010.2F
SAXON HARBOR     1740   77     200/ 14/ 20 1009.8F
$$

LMZ867-665-643>646-201900-
LAKE MICHIGAN

STATION/POSITION TIME  TEMP    WIND        PRES    WAVE
                       AIR SEA DIR/SP/G            HT/PER
                 (UTC) (F)     (DEG/KT/KT) (MB)    (FT/S)
S GREEN BAY BUOY 1730   62 58  220/ 12/ 16 1016.3F
N MID LAKE BUOY  1650   60 58  190/ 16/ 19 1017.5F   4/ 6
NORTHPORT PIER   1740   62     160/  9/ 13 1016.3F
KEWAUNEE LAKESHO 1730   56     180/ 15/ 17 1016.5F
SHEBOYGAN LAKESH 1700   56     170/ 18/ 19 1018.2F
PORT WASHINGTON  1740   60     170/  5/  9 1019.3F
ATWATER BUOY     1609   56 53  150/ 12/ 14 1019.6F
MILWAUKEE LAKESH 1740   72     220/ 14/ 18   N/A
S MID LAKE BUOY  1650   61 61  190/ 16/ 17 1020.7F   2/ 4
KENOSHA   LAKESH 1700   62     180/ 10/ 13 1019.6
$$

TC  - TEMPERATURE IN CELSIUS
VSB - VISIBILITY IN STATUTE MILES
WCI - WIND CHILL INDEX
HX  - HEAT INDEX




USA.gov is the U.S. government's official web portal to all federal, state and local government web resources and services.